Weather WX

World > North America > United States > North Carolina

Currituck, North Carolina Regional Weather

Lat: 36.45N, Lon: 76.02W
Wx Zone: NCZ017
Warning FLW WEATHER ALERT - (More Info. Click Here) Warning
Feedback

Currituck, NC Regional Weather

Expires:201906201500;;788205
ASUS42 KMHX 201425
RWRMHX
WEATHER ROUNDUP FOR EASTERN NORTH CAROLINA
NATIONAL WEATHER SERVICE NEWPORT/MOREHEAD CITY NC
1000 AM EDT THU JUN 20 2019

NOTE: "FAIR" INDICATES FEW OR NO CLOUDS BELOW 12,000 FEET
WITH NO SIGNIFICANT WEATHER AND/OR OBSTRUCTIONS TO VISIBILITY


NCZ015>017-031-032-045>047-102-103-201500-
NORTH COAST
  
CITY           SKY/WX    TMP DP  RH WIND       PRES   REMARKS
EDENTON        FAIR      83  77  80 SW10G16   29.75S                  
ELIZABETH CITY FAIR      83  74  74 SW14      29.73S                  
KITTY HAWK     FAIR      82  74  76 MISG      29.73S                  
MANTEO         FAIR      82  74  75 W10       29.75S                  

$$


SKY/WX - Weather  TMP - Temperature  DP - Dew Point  RH - Relative Humidity
WIND - Wind Direction/Speed PRES - Barometric Pressure VSB - Visibility
WCI - Wind Chill Index E13G22 Wind - East Wind 13 mph/Gusts of 22 mph